Location: Sternwarte auf dem Internationalen Platz Vogelsang IP
(50.5721°N, 6.4398°E)
Time: 04:45:27
(UTC+01:00)

Transit 2A Rocket - Pass Details

Date: 10 December 2025
Orbit: 581 x 903 km, 66.7° (Epoch: 13 January)

Event Time Altitude Azimuth Distance (km) Brightness Sun altitude
Rises 12:10:31 0° 265° (W) 3,390 8.4 16.4°
Reaches altitude 10° 12:13:21 10° 278° (W) 2,500 7.6 16.4°
Maximum altitude 12:18:10 26° 333° (NNW) 1,693 6.4 16.4°
Drops below altitude 10° 12:23:08 10° 28° (NNE) 2,589 7.3 16.5°
Sets 12:26:09 0° 42° (NE) 3,535 8.0 16.5°
